Wind_Speed
4 4 3 3 4 4 4 3 2 2 2 2 2 2 1 1 1 1 1 1 1 2 2 2 2 2 1 1 1 1 2 2 3 3 3 4 4 4 5 6 6 7 7 7 7 7 8 8 8
5 4 4 4 4 4 3 3 2 2 2 2 1 1 1 0 0 1 1 1 1 1 1 2 2 1 1 2 2 2 3 3 4 4 4 4 4 5 5 5 6 6 6 7 7 7 7 8 8
5 5 5 6 5 5 4 3 3 3 2 2 2 1 1 1 1 0 0 0 1 1 1 1 1 2 2 3 3 3 4 4 5 5 5 5 5 5 5 4 4 5 6 7 7 7 7 7 8
5 6 6 6 6 6 5 4 4 4 3 2 2 2 2 2 2 2 2 1 1 1 2 2 2 3 3 4 4 4 5 5 5 6 6 6 6 6 5 4 3 4 5 7 7 7 7 8 8
6 6 7 6 5 5 5 4 4 4 4 3 3 3 3 3 3 3 3 2 2 2 3 3 4 4 4 5 5 4 5 5 6 6 6 6 6 6 5 5 4 4 6 7 8 7 8 8 8
7 7 7 6 5 5 4 4 3 3 3 4 4 4 4 3 3 3 3 3 3 3 4 4 5 5 5 5 6 6 6 7 7 7 7 6 7 7 6 6 6 6 6 7 8 8 9 10 9
8 8 8 7 6 6 5 4 4 4 5 5 5 5 5 4 4 3 4 4 4 4 5 5 5 5 6 6 6 7 7 8 8 8 8 7 8 8 8 7 8 8 8 8 9 9 9 10 10
9 9 9 8 7 7 6 6 5 5 6 6 6 6 6 6 5 5 5 5 5 5 6 6 6 6 6 6 7 7 7 8 8 8 8 8 8 9 9 8 8 9 9 9 9 9 10 10 10
10 10 9 8 8 7 6 7 7 7 7 8 8 7 7 7 6 6 6 6 6 6 6 6 7 7 7 7 7 7 7 8 8 8 9 9 9 9 9 9 9 9 9 10 10 10 10 10 10
11 11 10 9 9 8 8 9 8 8 8 9 8 8 8 7 7 7 7 7 7 6 6 7 7 7 8 8 8 8 8 8 9 9 9 9 9 9 9 10 10 9 9 10 10 10 10 10 10
11 11 10 10 10 9 9 9 9 9 9 9 9 9 9 8 8 8 8 8 8 7 7 7 7 8 8 8 9 9 9 9 10 10 10 10 10 10 10 10 10 10 10 10 10 10 10 10 10
11 11 11 10 10 10 10 10 9 9 10 10 10 10 10 9 9 9 9 8 8 8 8 8 8 9 9 9 9 9 9 9 10 10 10 10 10 11 11 11 11 10 10 11 11 11 10 10 9
11 11 11 11 10 10 11 10 10 10 10 11 11 11 10 10 10 10 9 9 9 9 9 9 9 10 10 10 10 9 9 10 10 10 9 10 10 11 11 11 11 11 11 11 11 11 10 10 10
10 11 11 11 11 11 11 11 10 10 11 11 12 11 11 11 10 10 10 10 11 10 10 9 10 10 10 10 10 10 10 10 10 10 10 10 10 10 10 10 11 11 11 11 11 11 11 11 10
11 11 11 11 11 11 12 11 11 11 11 11 12 12 12 11 11 10 11 11 11 11 11 10 10 10 11 11 11 11 11 11 11 11 11 11 10 10 10 11 11 11 11 11 12 11 11 11 10
11 11 11 10 11 12 12 11 11 12 12 12 12 12 12 12 11 11 11 11 11 11 11 11 10 11 11 12 11 12 12 12 12 11 12 11 11 11 11 12 11 11 11 11 11 11 10 11 11
12 11 10 10 11 11 12 12 12 12 12 12 12 12 13 12 12 12 12 12 12 12 12 12 12 12 12 12 12 12 12 12 12 11 12 12 12 12 11 11 11 11 11 11 11 11 11 11 11
11 11 11 11 11 11 11 12 12 12 12 12 11 11 12 12 11 11 12 12 12 13 13 13 13 13 13 13 13 13 13 13 13 12 12 12 11 11 11 11 11 11 11 11 11 11 11 11 12
12 11 11 11 11 12 12 12 12 12 12 12 11 11 11 12 11 11 11 12 12 12 12 12 13 13 13 13 13 13 13 13 13 13 12 12 12 11 11 11 11 11 11 11 11 11 12 12 12
12 12 11 11 11 12 12 12 12 11 12 12 12 11 11 12 11 11 11 12 12 12 13 13 13 14 14 14 14 14 14 14 13 13 13 13 12 12 12 12 12 12 12 12 12 12 13 13 14
12 12 12 12 11 12 12 12 11 11 11 12 12 12 11 11 11 11 12 13 13 13 13 13 14 14 15 15 15 15 15 15 14 14 14 13 13 13 13 13 13 13 13 13 12 12 13 13 14
12 12 12 13 13 13 13 12 11 12 12 12 12 11 12 12 11 12 12 14 14 14 14 14 15 15 15 16 16 16 15 15 14 14 14 14 14 14 14 14 14 14 14 14 14 14 14 14 14
13 13 14 15 15 15 14 15 13 13 12 12 13 13 13 12 12 12 13 15 15 15 16 15 16 16 16 16 16 16 16 16 15 15 15 15 15 15 15 16 15 15 15 15 15 15 15 15 15
15 15 16 16 17 17 15 16 15 14 14 14 14 14 14 14 13 13 14 14 15 16 16 16 16 17 17 17 17 17 18 17 17 17 16 16 16 16 17 17 16 16 16 16 16 16 17 17 16
16 16 17 17 18 17 16 18 17 15 15 15 15 14 14 15 15 15 15 15 16 16 17 17 17 18 18 18 18 19 19 18 18 18 18 18 18 18 18 18 17 17 17 17 17 18 18 18 18
16 16 17 18 19 17 17 19 17 16 16 16 16 16 16 16 15 16 16 17 17 17 18 18 18 18 18 18 19 19 19 19 19 19 19 19 20 19 19 19 19 18 18 18 19 19 19 20 20
17 17 18 19 19 20 20 20 19 17 17 17 17 18 18 17 16 16 17 18 18 18 19 19 19 19 19 20 20 20 20 20 20 20 20 20 21 21 21 20 20 20 20 20 20 20 21 21 21
18 18 19 20 21 21 22 22 20 19 19 19 19 19 19 19 19 18 19 20 20 20 20 20 20 20 21 21 21 21 21 22 22 22 22 22 23 23 23 22 22 22 21 21 21 21 22 22 23
19 19 20 21 22 22 23 21 20 20 20 19 19 19 20 20 20 20 21 21 22 21 21 21 21 22 22 22 22 23 23 23 24 23 23 23 24 25 24 23 23 22 22 22 22 22 22 23 24
21 21 21 22 22 23 24 22 21 21 21 21 22 22 22 22 22 22 22 23 23 23 23 23 23 23 23 23 23 23 24 24 24 24 24 25 25 25 24 23 23 23 23 23 23 23 23 24 24
Wind_Direction
206 200 190 181 192 197 193 184 174 144 135 143 128 113 115 103 106 79 75 72 66 58 39 33 48 58 66 33 2 314 307 307 299 289 290 303 306 298 299 284 272 261 256 256 255 255 256 258 259
220 216 215 207 214 212 208 212 209 197 188 191 169 146 147 138 154 103 78 62 47 42 24 24 25 25 350 334 323 306 300 299 296 290 295 309 312 310 306 304 283 259 254 254 257 258 258 261 262
227 224 226 222 226 228 227 225 232 231 230 216 216 214 223 217 235 234 357 354 10 346 330 342 345 340 328 318 315 307 300 295 292 289 292 301 304 307 306 306 290 264 256 259 263 264 264 262 264
227 233 232 234 235 231 227 225 227 227 226 216 230 246 255 251 256 273 280 266 270 292 304 306 309 307 310 311 306 299 298 293 292 295 293 301 305 311 314 309 289 272 265 263 265 268 268 268 267
229 239 240 239 232 227 226 218 220 224 236 242 249 259 266 271 269 271 273 277 280 285 296 298 300 301 303 306 310 308 301 301 303 307 303 303 306 306 307 302 298 286 275 269 270 271 271 273 274
232 236 239 236 229 227 229 228 234 243 253 257 261 263 270 286 284 275 274 279 292 296 293 295 298 299 302 309 310 303 298 297 297 297 297 297 300 301 300 298 297 292 283 276 273 275 273 273 277
235 236 236 233 233 236 240 242 240 259 270 267 264 264 267 272 280 284 276 279 287 296 300 302 301 302 301 300 304 300 299 298 299 294 294 293 293 293 291 292 292 291 287 281 280 279 277 276 278
239 240 239 240 240 241 247 253 257 262 271 273 268 266 267 268 266 267 266 268 274 281 289 293 294 291 298 300 303 302 300 298 297 295 292 292 292 292 289 288 290 289 286 283 282 282 282 282 282
240 243 244 245 244 248 251 256 261 268 270 271 272 269 266 265 266 266 270 274 274 277 283 289 291 289 290 293 296 300 300 300 298 296 295 291 290 290 289 287 288 287 284 284 285 287 287 284 283
247 249 252 247 246 251 254 259 262 268 271 272 273 273 268 268 267 265 267 273 277 278 282 287 288 290 289 288 290 294 296 297 299 296 295 289 289 289 287 287 286 285 284 283 285 286 285 282 282
251 249 251 249 250 254 257 263 265 266 267 268 270 271 271 271 271 269 267 269 273 274 276 283 290 293 292 289 287 290 289 290 292 294 294 288 285 285 284 285 284 284 284 283 286 285 282 281 283
249 249 252 253 255 257 258 262 265 264 264 267 270 268 269 271 270 268 269 270 272 275 278 283 287 290 291 290 289 290 290 290 290 293 293 291 287 283 284 284 283 282 283 285 287 286 280 282 285
249 249 251 256 257 259 261 262 262 263 265 267 267 266 269 270 271 272 274 275 275 277 279 279 283 286 287 287 288 291 291 291 292 291 289 289 287 284 283 282 285 285 284 283 283 281 279 281 285
252 252 252 255 257 260 261 262 261 261 263 267 265 267 268 268 270 272 276 276 276 278 279 277 279 281 285 288 288 288 289 288 290 290 288 288 287 287 286 287 286 285 283 282 282 284 284 286 288
252 253 254 255 257 260 262 261 261 260 259 262 264 268 269 271 274 274 274 273 274 277 279 278 278 280 283 285 285 285 287 286 285 285 285 285 287 288 289 290 288 285 285 285 283 284 285 285 285
255 255 255 255 254 257 261 264 262 260 258 260 262 267 272 272 274 275 273 272 273 276 277 278 281 284 284 286 286 284 285 285 284 282 281 282 283 284 285 285 285 286 287 287 284 284 284 284 283
257 260 258 255 255 258 261 264 262 262 260 259 261 267 271 272 274 275 273 272 272 274 275 277 281 282 283 286 287 286 284 284 283 282 281 282 282 283 285 288 288 289 288 287 284 283 283 283 283
260 259 258 259 259 260 261 262 262 262 262 262 264 265 268 272 273 273 271 271 271 272 274 277 280 281 283 285 285 285 285 286 285 283 283 284 284 284 286 289 289 288 285 282 281 282 282 282 283
257 259 261 261 261 262 262 266 267 265 263 263 265 265 265 270 272 270 271 273 274 274 274 278 280 281 282 283 284 285 285 285 285 284 284 283 281 283 285 288 289 288 285 282 280 280 280 280 281
257 261 263 264 262 261 263 267 269 267 265 267 269 267 264 268 267 269 274 275 275 275 274 276 279 280 281 280 281 282 283 283 282 282 282 282 282 283 283 285 287 288 287 284 282 279 279 279 280
256 260 262 262 262 263 266 268 268 269 270 273 275 272 269 270 266 267 271 273 274 274 275 277 279 279 277 278 279 279 281 281 280 280 280 281 281 282 283 284 285 286 287 286 284 283 281 280 281
256 258 259 259 261 262 265 266 267 270 271 275 276 275 271 270 269 268 269 269 274 276 277 277 277 278 278 278 278 277 278 279 279 278 278 278 278 279 280 281 282 283 285 285 284 283 282 281 281
257 258 256 255 258 259 262 268 270 273 275 276 274 271 271 269 272 271 270 270 274 276 277 277 275 276 277 278 278 277 277 277 278 278 276 276 276 277 278 279 280 281 283 283 283 282 282 282 282
259 258 256 255 258 257 264 269 271 274 277 277 273 270 271 271 272 270 268 270 273 276 277 276 276 275 274 274 275 276 276 276 276 276 275 276 276 277 278 278 279 280 282 283 282 281 281 281 281
258 258 257 257 257 261 267 269 273 275 277 276 272 270 270 271 271 272 271 270 271 275 276 275 275 276 274 273 273 274 274 273 273 274 275 276 276 277 277 277 277 279 281 282 282 282 281 280 281
259 258 261 264 263 265 265 267 272 275 273 272 273 269 266 267 267 268 269 272 274 275 276 276 276 276 275 274 274 274 272 272 271 272 274 275 276 276 277 276 276 278 279 280 281 281 281 280 280
261 260 264 266 267 266 268 270 270 271 269 269 270 271 269 267 269 271 271 274 275 275 274 275 276 276 277 275 276 274 273 272 271 272 274 275 276 275 275 275 275 276 277 278 279 279 280 280 280
259 263 264 264 265 266 268 269 270 271 271 270 270 270 271 272 271 270 272 276 278 277 275 275 276 276 276 276 274 273 274 273 272 272 273 273 274 275 275 275 275 275 276 277 279 279 280 279 280
258 259 261 262 264 267 269 269 270 270 271 270 270 270 271 273 271 270 273 274 276 278 276 275 275 275 275 275 274 273 274 275 274 272 272 274 273 273 272 273 274 274 275 277 279 280 280 280 279
261 262 262 262 264 266 269 270 270 269 269 270 271 272 272 273 273 272 273 273 276 276 275 274 274 274 274 274 274 274 274 275 274 273 272 274 274 273 271 271 272 275 277 278 280 281 281 280 280
Height
5876 5877 5878 5878 5879 5878 5878 5878 5878 5879 5879 5879 5879 5880 5880 5880 5881 5882 5880 5878 5878 5877 5876 5876 5875 5875 5876 5876 5876 5876 5876 5875 5875 5874 5874 5873 5873 5872 5870 5868 5866 5866 5867 5868 5869 5869 5870 5870 5870
5876 5877 5878 5878 5878 5878 5878 5878 5878 5879 5879 5879 5879 5879 5880 5880 5880 5879 5879 5878 5878 5877 5877 5876 5876 5876 5876 5876 5876 5876 5875 5875 5874 5874 5873 5873 5872 5871 5869 5866 5863 5863 5865 5867 5868 5868 5868 5868 5868
5875 5876 5878 5877 5877 5878 5878 5878 5878 5878 5878 5878 5879 5879 5879 5880 5879 5879 5879 5878 5878 5877 5877 5877 5876 5876 5876 5876 5875 5875 5875 5874 5874 5873 5872 5872 5871 5870 5869 5866 5864 5863 5865 5866 5867 5867 5867 5867 5866
5875 5876 5877 5877 5876 5877 5877 5877 5877 5877 5877 5878 5879 5879 5879 5879 5879 5879 5878 5878 5877 5877 5877 5877 5876 5876 5876 5875 5875 5874 5874 5874 5873 5872 5871 5871 5870 5870 5868 5867 5865 5864 5865 5865 5866 5866 5865 5865 5865
5874 5875 5875 5875 5875 5876 5876 5876 5877 5877 5877 5877 5878 5878 5878 5878 5878 5878 5877 5877 5877 5877 5876 5876 5876 5876 5875 5875 5874 5874 5873 5873 5872 5871 5871 5870 5870 5869 5868 5867 5866 5865 5865 5865 5865 5864 5864 5864 5864
5874 5874 5874 5874 5875 5875 5875 5876 5876 5876 5876 5876 5877 5877 5877 5877 5877 5877 5876 5876 5876 5876 5876 5875 5875 5875 5874 5874 5873 5873 5872 5872 5871 5870 5870 5869 5869 5868 5867 5866 5865 5864 5864 5864 5864 5863 5863 5862 5862
5873 5873 5873 5873 5873 5874 5874 5875 5875 5875 5875 5875 5875 5876 5876 5876 5876 5876 5875 5875 5875 5875 5874 5874 5874 5874 5873 5873 5872 5872 5871 5871 5870 5869 5868 5868 5867 5867 5866 5865 5864 5863 5863 5862 5862 5861 5861 5860 5860
5871 5872 5871 5872 5872 5873 5873 5873 5873 5874 5874 5874 5874 5874 5874 5875 5875 5875 5874 5874 5874 5874 5873 5873 5873 5872 5872 5871 5871 5870 5870 5869 5869 5868 5867 5866 5866 5865 5864 5864 5863 5862 5861 5861 5860 5859 5859 5859 5858
5869 5871 5870 5871 5871 5871 5871 5872 5872 5872 5872 5872 5872 5873 5873 5873 5873 5873 5873 5873 5872 5872 5872 5871 5871 5871 5870 5870 5869 5869 5868 5867 5867 5866 5865 5865 5864 5863 5863 5862 5861 5860 5859 5859 5858 5857 5857 5857 5856
5867 5868 5869 5869 5869 5869 5869 5870 5870 5871 5870 5870 5870 5871 5871 5871 5871 5871 5871 5871 5871 5871 5870 5870 5869 5869 5869 5868 5867 5867 5866 5866 5865 5864 5864 5863 5862 5861 5861 5860 5859 5858 5858 5857 5856 5856 5855 5855 5854
5865 5866 5866 5867 5867 5867 5868 5868 5868 5869 5868 5868 5868 5868 5869 5869 5869 5869 5869 5869 5869 5869 5869 5868 5867 5867 5867 5866 5866 5865 5865 5864 5863 5862 5862 5861 5860 5859 5859 5858 5857 5856 5856 5855 5854 5853 5853 5852 5852
5863 5864 5863 5864 5864 5865 5865 5866 5866 5866 5867 5866 5866 5866 5866 5867 5867 5867 5867 5867 5867 5867 5867 5866 5865 5865 5864 5864 5863 5863 5862 5862 5861 5860 5859 5858 5858 5857 5856 5855 5855 5854 5853 5853 5852 5851 5851 5850 5850
5861 5861 5861 5862 5862 5862 5863 5863 5864 5864 5864 5863 5863 5863 5864 5864 5864 5864 5864 5864 5864 5864 5864 5864 5863 5863 5862 5862 5861 5860 5860 5859 5859 5858 5857 5856 5856 5855 5854 5853 5852 5852 5851 5850 5850 5849 5848 5848 5847
5858 5858 5859 5859 5859 5860 5860 5861 5861 5861 5861 5861 5860 5860 5861 5861 5861 5861 5861 5861 5861 5862 5862 5862 5861 5860 5860 5859 5859 5858 5858 5857 5856 5855 5855 5854 5853 5852 5852 5851 5850 5849 5849 5848 5847 5846 5846 5845 5845
5856 5856 5857 5857 5857 5857 5857 5858 5858 5858 5858 5858 5857 5857 5857 5858 5858 5858 5858 5859 5859 5859 5859 5859 5858 5858 5857 5857 5856 5855 5855 5854 5853 5853 5852 5851 5851 5850 5849 5849 5848 5847 5846 5845 5845 5844 5843 5843 5842
5853 5854 5854 5855 5854 5854 5856 5855 5855 5855 5855 5855 5854 5854 5854 5855 5855 5855 5855 5856 5856 5856 5855 5855 5855 5855 5854 5854 5853 5853 5852 5851 5851 5850 5849 5848 5848 5847 5847 5846 5845 5844 5843 5842 5842 5841 5841 5840 5840
5850 5851 5851 5852 5851 5851 5851 5851 5852 5851 5851 5852 5852 5851 5851 5851 5851 5851 5852 5852 5852 5852 5852 5852 5852 5852 5851 5851 5850 5850 5849 5848 5848 5847 5846 5845 5845 5844 5843 5843 5842 5841 5840 5840 5839 5839 5838 5838 5837
5848 5848 5848 5848 5848 5847 5847 5847 5848 5847 5847 5848 5848 5848 5848 5848 5848 5848 5848 5848 5849 5849 5849 5849 5849 5848 5848 5847 5847 5846 5846 5845 5844 5843 5843 5842 5841 5841 5840 5839 5839 5838 5837 5837 5836 5836 5835 5835 5834
5844 5845 5845 5845 5844 5844 5843 5843 5844 5843 5843 5844 5844 5845 5844 5844 5844 5844 5845 5845 5845 5845 5846 5846 5845 5845 5845 5844 5843 5843 5842 5842 5841 5840 5840 5839 5838 5837 5837 5836 5836 5835 5834 5834 5833 5833 5832 5832 5831
5841 5841 5841 5841 5841 5840 5840 5839 5839 5839 5839 5839 5840 5840 5840 5841 5841 5841 5841 5841 5842 5842 5842 5842 5842 5842 5841 5840 5840 5839 5839 5838 5837 5837 5836 5836 5835 5834 5834 5833 5832 5832 5831 5830 5830 5829 5829 5828 5828
5837 5838 5838 5838 5837 5836 5836 5836 5836 5835 5835 5835 5835 5836 5836 5837 5837 5838 5837 5838 5838 5838 5839 5839 5839 5838 5838 5837 5836 5836 5835 5834 5834 5833 5833 5832 5831 5831 5830 5830 5829 5828 5828 5827 5826 5826 5825 5825 5824
5834 5834 5834 5833 5833 5833 5833 5832 5833 5832 5831 5831 5831 5832 5832 5833 5834 5834 5834 5834 5834 5834 5835 5835 5835 5834 5833 5833 5832 5832 5831 5831 5830 5830 5829 5828 5827 5827 5826 5826 5825 5825 5824 5823 5823 5822 5821 5821 5820
5830 5830 5830 5829 5829 5829 5828 5828 5829 5828 5827 5827 5827 5827 5828 5828 5829 5830 5830 5831 5831 5831 5831 5830 5830 5830 5829 5829 5828 5827 5827 5826 5826 5825 5825 5824 5824 5823 5822 5822 5821 5820 5820 5819 5818 5818 5817 5817 5816
5826 5826 5826 5825 5825 5825 5825 5824 5824 5824 5824 5823 5823 5823 5824 5825 5825 5825 5826 5826 5826 5826 5826 5826 5826 5825 5824 5824 5823 5823 5822 5822 5821 5821 5820 5820 5819 5818 5818 5817 5816 5816 5815 5815 5814 5813 5813 5812 5811
5822 5822 5822 5821 5820 5821 5822 5819 5820 5820 5820 5819 5819 5819 5820 5820 5820 5820 5821 5821 5821 5821 5821 5821 5821 5820 5819 5819 5818 5818 5817 5817 5816 5816 5816 5815 5814 5814 5813 5812 5812 5811 5810 5810 5809 5808 5808 5807 5806
5817 5818 5818 5817 5816 5816 5816 5814 5816 5816 5816 5815 5814 5815 5815 5815 5816 5816 5817 5816 5816 5816 5816 5816 5815 5815 5814 5813 5813 5812 5812 5811 5811 5811 5810 5810 5809 5808 5808 5807 5806 5806 5805 5804 5804 5803 5802 5802 5801
5812 5812 5813 5812 5811 5811 5810 5811 5811 5811 5811 5811 5810 5810 5811 5811 5811 5812 5812 5812 5812 5811 5811 5810 5810 5809 5808 5808 5807 5806 5806 5805 5805 5804 5804 5804 5803 5802 5802 5801 5801 5800 5799 5799 5798 5797 5796 5796 5795
5807 5807 5807 5807 5806 5805 5806 5805 5806 5806 5806 5806 5806 5806 5806 5806 5806 5806 5806 5806 5805 5805 5805 5804 5804 5803 5802 5801 5801 5800 5800 5799 5798 5798 5798 5797 5797 5796 5795 5794 5794 5793 5793 5792 5791 5791 5790 5789 5788
5802 5802 5801 5801 5800 5800 5800 5803 5802 5801 5801 5801 5801 5801 5800 5800 5800 5800 5800 5800 5799 5799 5798 5798 5797 5797 5796 5795 5795 5794 5793 5792 5792 5791 5791 5790 5790 5789 5788 5787 5787 5786 5786 5785 5785 5784 5783 5782 5781
5796 5796 5796 5796 5795 5794 5794 5798 5796 5796 5795 5795 5795 5795 5794 5794 5794 5794 5794 5794 5793 5792 5792 5791 5791 5790 5789 5789 5788 5787 5786 5786 5785 5784 5784 5783 5783 5782 5781 5780 5780 5779 5779 5778 5778 5777 5776 5775 5774